DW5750 Weather Reports


Display with metric or nautical units.
time (UTC)temp
F
wind
direction
speed
MPH
gust
MPH
rain 1hr
in
rain 24hr
in
rain mn
in
humidity
%
barometer
mb
20260903134547 77 160 7.0 13.0 0.00 0.00 0.00 92 1012.3
20260903133042 77 155 8.0 12.0 0.00 0.00 0.00 92 1012.0
20260903131538 77 161 6.0 12.0 0.00 0.00 0.00 92 1011.8
20260903130042 77 148 6.0 12.0 0.00 0.00 0.00 93 1011.5
20260903124533 77 139 6.0 13.0 0.00 0.00 0.00 93 1011.2
20260903123032 77 163 8.0 16.0 0.00 0.00 0.00 93 1011.1
20260903121530 77 165 7.0 16.0 0.00 0.00 0.00 93 1011.0
20260903120033 76 159 9.0 14.0 0.00 0.00 0.00 93 1010.9
20260903114529 76 171 5.0 14.0 0.00 0.00 0.00 93 1010.8
20260903113027 76 147 8.0 13.0 0.00 0.00 0.00 94 1010.7
20260903111526 76 143 6.0 12.0 0.00 0.00 0.00 93 1010.6
20260903110024 76 141 8.0 13.0 0.00 0.00 0.00 93 1010.5
20260903104523 76 137 7.0 12.0 0.00 0.00 0.00 93 1010.3
20260903103022 76 155 6.0 12.0 0.00 0.00 0.00 93 1010.1
20260903101538 76 149 7.0 10.0 0.00 0.00 0.00 93 1010.1
20260903100024 76 156 5.0 11.0 0.00 0.00 0.00 94 1010.0
20260903094518 76 160 6.0 11.0 0.00 0.00 0.00 93 1009.9
20260903093015 76 160 5.0 13.0 0.00 0.00 0.00 94 1009.7
20260903091515 76 161 6.0 11.0 0.00 0.00 0.00 93 1009.7
20260903090013 76 178 6.0 10.0 0.00 0.00 0.00 93 1009.8
20260903084525 77 158 6.0 10.0 0.00 0.00 0.00 93 1009.8
20260903083019 77 174 6.0 10.0 0.00 0.00 0.00 93 1010.0
20260903081508 77 186 5.0 12.0 0.00 0.00 0.00 93 1010.1
20260903080011 77 186 5.0 12.0 0.00 0.00 0.00 93 1010.1
20260903074504 77 172 6.0 9.0 0.00 0.00 0.00 93 1010.2
20260903073003 77 158 5.0 10.0 0.00 0.00 0.00 92 1010.4
20260903071558 77 193 5.0 11.0 0.00 0.00 0.00 92 1010.5
20260903070057 77 180 5.0 9.0 0.00 0.00 0.00 92 1010.7
20260903064603 77 192 7.0 10.0 0.00 0.00 0.00 93 1010.7
20260903063052 77 168 5.0 9.0 0.00 0.00 0.00 93 1010.8
20260903061550 77 165 5.0 9.0 0.00 0.00 0.00 93 1011.0
20260903060052 77 136 4.0 10.0 0.00 0.00 0.00 93 1011.2
20260903054547 77 136 4.0 7.0 0.00 0.00 0.00 93 1011.3
20260903053101 77 217 2.0 7.0 0.00 0.00 0.00 93 1011.4
20260903051549 77 169 3.0 8.0 0.00 0.00 0.00 92 1011.6
20260903050045 77 139 3.0 7.0 0.00 0.00 0.00 91 1011.9
20260903044545 77 165 2.0 6.0 0.00 0.00 0.00 92 1011.9
20260903043043 77 154 1.0 7.0 0.00 0.00 0.00 92 1012.0
20260903041558 77 157 3.0 7.0 0.00 0.00 0.00 92 1011.9
20260903040057 77 215 3.0 6.0 0.00 0.00 0.00 92 1011.9
20260903034642 77 198 3.0 8.0 0.00 0.00 0.00 92 1011.7
20260903031517 77 168 3.0 8.0 0.00 0.00 0.00 92 1011.5
20260903030017 77 175 1.0 5.0 0.00 0.00 0.00 93 1011.5
20260903024516 77 162 0.0 4.0 0.00 0.00 0.00 92 1011.4
20260903023015 77 159 3.0 8.0 0.00 0.00 0.00 92 1011.3
20260903021515 77 147 2.0 6.0 0.00 0.00 0.00 92 1011.3
20260903020014 77 151 3.0 5.0 0.00 0.00 0.00 92 1011.0
20260903014513 77 175 1.0 6.0 0.00 0.00 0.00 92 1010.8
20260903013012 77 131 5.0 7.0 0.00 0.00 0.00 92 1010.8
20260903011513 77 148 0.0 5.0 0.00 0.00 0.00 92 1010.6
20260903010011 77 173 1.0 6.0 0.00 0.00 0.00 92 1010.4
20260903004511 77 184 4.0 6.0 0.00 0.00 0.00 92 1010.3
20260903003009 77 150 3.0 6.0 0.00 0.00 0.00 92 1010.3
20260903001509 77 154 3.0 7.0 0.00 0.00 0.00 91 1010.3
20260903000019 78 144 3.0 6.0 0.00 0.00 0.00 91 1010.2
20260902234607 78 150 5.0 7.0 0.00 0.00 0.00 90 1010.0
20260902233006 78 144 5.0 7.0 0.00 0.00 0.00 90 1009.9
20260902231515 78 135 5.0 7.0 0.00 0.00 0.00 90 1009.8
20260902230005 78 136 3.0 7.0 0.00 0.00 0.00 90 1009.6
20260902224504 79 144 5.0 9.0 0.00 0.00 0.00 90 1009.4
20260902223003 79 133 6.0 9.0 0.00 0.00 0.00 89 1009.6
20260902221502 79 186 5.0 10.0 0.00 0.00 0.00 90 1009.6
20260902220001 79 144 5.0 11.0 0.00 0.00 0.00 89 1009.6
20260902214625 79 136 6.0 12.0 0.00 0.00 0.00 90 1009.7
20260902213058 79 143 7.0 12.0 0.00 0.00 0.00 89 1009.8
20260902211557 80 162 6.0 12.0 0.00 0.00 0.00 89 1009.9
20260902210116 80 176 5.0 12.0 0.00 0.00 0.00 88 1010.1
20260902204558 81 192 5.0 13.0 0.00 0.00 0.00 87 1010.2
20260902203059 81 150 7.0 12.0 0.00 0.00 0.00 86 1010.2
20260902201553 81 165 6.0 11.0 0.00 0.00 0.00 87 1010.6
20260902200105 81 153 6.0 12.0 0.00 0.00 0.00 86 1010.7
20260902194558 81 141 6.0 10.0 0.00 0.00 0.00 87 1010.9
20260902193049 81 162 4.0 10.0 0.00 0.00 0.00 86 1011.0
20260902191558 81 158 6.0 13.0 0.00 0.00 0.00 87 1011.2
20260902190105 81 139 6.0 12.0 0.00 0.00 0.00 87 1011.4
20260902184553 80 155 7.0 15.0 0.00 0.00 0.00 86 1011.5
20260902183046 81 205 8.0 13.0 0.00 0.00 0.00 86 1011.7
20260902181605 81 196 7.0 15.0 0.00 0.00 0.00 88 1012.0
20260902180044 81 155 8.0 14.0 0.00 0.00 0.00 87 1012.1
20260902174543 80 175 9.0 16.0 0.00 0.00 0.00 88 1012.1
20260902173041 80 193 9.0 18.0 0.00 0.00 0.00 88 1012.4
20260902171600 80 163 6.0 14.0 0.00 0.00 0.00 88 1012.7
20260902170037 79 207 8.0 14.0 0.00 0.00 0.00 89 1013.0
20260902164537 79 152 5.0 12.0 0.00 0.00 0.00 90 1013.2
20260902163037 79 158 5.0 13.0 0.00 0.00 0.00 89 1013.4
20260902161539 79 193 7.0 13.0 0.00 0.00 0.00 89 1013.3
20260902160039 79 203 6.0 13.0 0.00 0.00 0.00 90 1013.4
20260902154536 78 156 8.0 13.0 0.00 0.00 0.00 90 1013.4
20260902153032 79 167 5.0 10.0 0.00 0.00 0.00 89 1013.5
20260902151532 79 209 5.0 11.0 0.00 0.00 0.00 87 1013.4
20260902150027 79 159 4.0 10.0 0.00 0.00 0.00 89 1013.1
20260902144525 78 158 4.0 10.0 0.00 0.00 0.00 90 1013.1
20260902143023 77 156 6.0 11.0 0.00 0.00 0.00 91 1012.9
20260902141623 77 148 4.0 10.0 0.00 0.00 0.00 92 1012.8
20260902140020 77 170 6.0 11.0 0.00 0.00 0.00 93 1012.8